Kingsville NAS, TX

12:27 PM CDT on April 26, 2018 (GMT -0500)
Kingsville Naval Air Station

Weather History for KNQI - September, 2012

Change the Weather History Date:

Saturday, September 15, 2012

  Actual Average Record
Temperature  
Mean Temperature 77 °F -  
Max Temperature 84 °F 89 °F 99 °F (1997)
Min Temperature 70 °F 71 °F 66 °F (2008)
Cooling Degree Days 12    
Growing Degree Days 27 (Base 50)    
Moisture  
Dew Point 71 °F    
Average Humidity 86    
Maximum Humidity 96    
Minimum Humidity 62    
Precipitation  
Precipitation 0.55 in - - ()
Sea Level Pressure  
Sea Level Pressure 30.09 in    
Wind  
Wind Speed 8 mph (North)    
Max Wind Speed 13 mph    
Max Gust Speed 18 mph    
Visibility 8 miles    
Events Rain    
Averages and records for this station are not official NWS values.
T = Trace of Precipitation, MM = Missing Value Source: NWS Daily Summary

Daily Weather History Graph

Daily Weather History Graph

Search for Another Location

Airport or City:

Astronomy

Sep. 15, 2012 Rise Set
Actual Time 7:16 AM CDT 7:35 PM CDT
Civil Twilight 6:53 AM CDT 7:58 PM CDT
Nautical Twilight 6:26 AM CDT 8:25 PM CDT
Astronomical Twilight 5:58 AM CDT 8:53 PM CDT
Moon 6:47 AM CDT (9/15) 7:11 PM CDT (9/15)
Length of Visible Light 13h 05m
Length of Day
12h 18m
Waning Crescent, 0% of the Moon is Illuminated
Sep 15
Waning Crescent
Sep 15
New
Sep 22
First Quarter
Sep 29
Full
Oct 8
Last Quarter

Hourly Weather History & Observations

Time (CDT) Temp. Heat Index Dew Point Humidity Pressure Visibility Wind Dir Wind Speed Gust Speed Precip Events Conditions
12:56 AM 73.9 °F - 72.0 °F 93% 30.12 in 9.0 mi North 9.2 mph - N/A   Mostly Cloudy
1:56 AM 73.0 °F - 72.0 °F 96% 30.12 in 9.0 mi North 6.9 mph - N/A   Partly Cloudy
2:19 AM 73.4 °F - 71.6 °F 94% 30.12 in 8.0 mi North 5.8 mph - N/A   Mostly Cloudy
2:56 AM 72.0 °F - 70.0 °F 93% 30.11 in 9.0 mi North 9.2 mph - N/A   Overcast
3:04 AM 71.6 °F - 69.8 °F 94% 30.12 in 9.0 mi North 8.1 mph - N/A   Overcast
3:56 AM 72.0 °F - 70.0 °F 93% 30.10 in 8.0 mi North 11.5 mph - N/A   Overcast
4:56 AM 71.1 °F - 69.1 °F 93% 30.10 in 8.0 mi North 9.2 mph - N/A   Mostly Cloudy
5:56 AM 71.1 °F - 69.1 °F 93% 30.10 in 8.0 mi North 8.1 mph - N/A   Overcast
6:56 AM 71.1 °F - 68.0 °F 90% 30.12 in 10.0 mi North 8.1 mph - N/A   Overcast
7:56 AM 70.0 °F - 68.0 °F 93% 30.13 in 9.0 mi North 9.2 mph - N/A   Overcast
8:31 AM 71.6 °F - 68.0 °F 88% 30.14 in 9.0 mi North 9.2 mph - N/A   Overcast
8:56 AM 72.0 °F - 68.0 °F 87% 30.13 in 9.0 mi North 9.2 mph - N/A   Overcast
9:56 AM 73.0 °F - 68.0 °F 84% 30.15 in 9.0 mi North 10.4 mph 18.4 mph N/A   Overcast
10:56 AM 75.0 °F - 69.1 °F 82% 30.15 in 9.0 mi North 10.4 mph - N/A   Overcast
11:56 AM 77.0 °F - 69.1 °F 76% 30.13 in 10.0 mi North 9.2 mph - N/A   Overcast
12:56 PM 79.0 °F - 70.0 °F 74% 30.12 in 10.0 mi North 8.1 mph - N/A   Overcast
1:56 PM 82.9 °F 87.5 °F 71.1 °F 67% 30.09 in 10.0 mi NNE 10.4 mph - N/A   Overcast
2:26 PM 84.2 °F 88.4 °F 69.8 °F 62% 30.09 in 10.0 mi NNE 8.1 mph - N/A   Overcast
2:56 PM 84.0 °F 88.4 °F 70.0 °F 63% 30.07 in 10.0 mi North 5.8 mph - N/A   Mostly Cloudy
3:56 PM 84.0 °F 89.6 °F 72.0 °F 67% 30.05 in 10.0 mi North 12.7 mph - 0.00 in   Overcast
4:56 PM 81.0 °F 85.2 °F 72.0 °F 74% 30.04 in 10.0 mi NNW 9.2 mph - 0.00 in   Overcast
5:37 PM 78.8 °F - 73.4 °F 83% 30.05 in 1.8 mi NE 8.1 mph - 0.06 in Rain Heavy Rain
5:56 PM 73.9 °F - 72.0 °F 93% 30.05 in 1.2 mi NNE 11.5 mph - 0.26 in Rain Heavy Rain
6:37 PM 73.4 °F - 71.6 °F 94% 30.05 in 2.5 mi WNW 8.1 mph - 0.26 in Rain Rain
6:48 PM 73.4 °F - 71.6 °F 94% 30.05 in 3.0 mi WNW 9.2 mph - 0.28 in Rain Rain
6:56 PM 73.9 °F - 72.0 °F 93% 30.04 in 4.0 mi WNW 8.1 mph - 0.28 in Rain Light Rain
7:56 PM 73.9 °F - 72.0 °F 93% 30.04 in 9.0 mi NW 5.8 mph - 0.01 in   Mostly Cloudy
8:56 PM 75.0 °F - 72.0 °F 90% 30.05 in 9.0 mi North 3.5 mph - N/A   Partly Cloudy
9:56 PM 73.9 °F - 72.0 °F 93% 30.06 in 8.0 mi NNW 4.6 mph - N/A   Mostly Cloudy
10:56 PM 73.0 °F - 72.0 °F 96% 30.06 in 6.0 mi North 4.6 mph - N/A   Mostly Cloudy
11:56 PM 73.0 °F - 72.0 °F 96% 30.06 in 5.0 mi NNE 4.6 mph - N/A   Mostly Cloudy